Dewpoint
25 25 25 24 23 20 17 17 19 26 34 41 45 48 49 50 52 51 51 51 51 53 57 60 62 66 67 69 71 71 69 71
23 24 24 23 26 18 18 27 23 24 27 36 45 48 50 51 53 55 57 57 55 54 55 58 61 63 67 69 70 70 69 69
26 25 24 23 21 21 18 20 21 21 37 46 50 49 49 52 54 55 57 59 59 58 56 57 59 61 65 68 68 69 69 69
26 25 26 26 26 24 23 28 28 26 36 47 50 50 51 52 54 55 58 59 60 61 59 60 61 61 62 67 67 68 69 70
26 25 27 26 25 25 25 24 28 23 39 48 51 52 52 52 53 55 56 57 60 61 64 65 64 65 65 66 67 67 68 68
28 40 35 32 28 29 27 25 25 27 43 47 49 51 52 53 53 53 55 56 57 60 62 65 67 69 69 68 69 68 67 67
30 30 30 30 29 28 29 30 29 28 35 48 50 50 50 51 53 52 52 52 54 57 61 63 64 68 71 71 72 71 70 69
30 28 28 27 28 26 31 29 32 32 33 47 48 49 48 48 51 50 50 50 51 52 55 60 63 64 65 69 71 72 73 72
27 25 23 26 30 28 31 35 39 36 46 48 47 47 47 46 49 49 49 51 52 52 52 54 56 61 63 65 67 72 72 73
25 28 25 34 39 37 35 34 38 39 42 44 45 45 45 45 49 49 49 50 51 50 52 53 54 55 60 63 67 68 71 71
26 25 32 37 39 37 37 35 38 40 42 43 43 43 41 48 47 47 48 48 49 50 53 55 55 57 58 60 63 66 67 70
32 29 26 42 41 40 39 31 45 43 43 42 42 37 35 46 45 46 47 49 52 53 54 54 56 56 57 57 60 62 66 69
31 31 38 42 40 39 31 43 44 42 43 43 42 44 47 47 48 49 51 52 54 54 55 56 57 56 57 59 60 63 65 68
32 32 34 43 39 35 44 43 43 44 44 46 47 47 47 47 49 50 51 52 53 54 55 55 57 57 58 61 64 66 65 66
33 39 46 44 42 42 43 45 46 47 46 47 46 46 47 48 50 51 52 52 54 56 58 59 58 59 59 63 65 66 66 65
35 39 40 42 42 43 45 46 46 46 46 47 47 48 49 51 51 53 53 53 54 57 57 59 61 61 61 62 64 64 65 65
38 44 45 45 45 46 46 47 47 48 48 49 50 50 52 53 54 53 53 56 57 58 58 59 60 61 61 61 62 60 62 61
44 47 47 46 47 48 48 48 49 49 50 51 52 52 52 53 55 57 58 59 60 60 60 60 62 61 63 64 63 60 59 57
45 46 46 47 47 48 48 48 48 48 49 50 52 53 55 55 57 57 58 59 60 60 60 61 62 61 62 66 65 64 64 60
Lifted_Index
1 1 1 0 -0 -1 -1 -1 -1 -1 -1 -1 -2 -3 -4 -4 -4 -4 -4 -4 -3 -3 -4 -4 -5 -5 -5 -5 -5 -5 -5 -4
1 1 1 0 -0 -0 -1 -1 -1 -1 -1 -2 -3 -3 -3 -4 -4 -4 -4 -4 -4 -4 -4 -4 -5 -5 -5 -5 -6 -5 -5 -5
0 0 0 0 -0 -0 -1 -1 -1 -1 -1 -2 -3 -3 -3 -4 -4 -4 -4 -5 -5 -5 -4 -4 -5 -5 -6 -6 -6 -6 -5 -5
-0 -0 0 0 -0 -1 -1 -1 -1 -1 -2 -3 -3 -3 -3 -3 -3 -3 -4 -4 -4 -5 -5 -5 -5 -6 -6 -6 -6 -6 -5 -5
-0 -0 0 0 -0 -1 -1 -1 -1 -1 -2 -3 -3 -2 -2 -2 -2 -2 -2 -3 -3 -4 -5 -5 -6 -6 -6 -6 -6 -6 -6 -5
-0 -0 -0 -0 -0 -0 -0 -0 -0 -1 -2 -2 -2 -2 -1 -1 -1 -1 -1 -1 -2 -3 -4 -5 -5 -6 -6 -7 -7 -7 -6 -6
0 0 -0 -0 0 0 0 0 0 -0 -1 -2 -1 -1 -0 -0 0 1 1 1 0 -1 -2 -3 -4 -5 -6 -6 -7 -7 -7 -7
1 1 1 1 1 1 1 1 1 0 -1 -1 -0 0 1 1 1 2 2 3 2 2 0 -1 -3 -4 -4 -5 -6 -7 -7 -7
2 2 1 1 2 2 2 1 1 1 0 0 1 1 2 2 2 3 3 3 3 3 2 1 -0 -2 -3 -4 -5 -6 -6 -7
3 2 1 1 2 2 2 2 2 2 1 2 2 2 2 3 3 3 3 3 3 3 3 2 1 0 -2 -3 -4 -5 -6 -6
2 2 1 1 2 3 2 2 2 2 2 3 3 3 3 3 3 3 3 3 3 2 2 2 1 1 -0 -2 -3 -4 -5 -6
2 1 1 1 3 3 3 3 3 3 3 3 4 4 4 4 4 3 2 2 1 1 1 1 0 0 0 -1 -2 -4 -5 -6
2 2 1 2 3 4 3 3 3 4 4 4 4 4 4 3 3 2 1 1 0 0 0 -0 0 0 0 -0 -1 -3 -4 -5
2 2 2 3 4 4 4 4 4 4 4 4 4 4 3 3 2 1 0 0 0 0 0 -0 -0 0 0 -0 -1 -2 -3 -4
3 3 3 4 4 4 4 4 4 4 4 4 4 3 3 2 1 1 0 0 0 -0 -0 -0 -0 -0 -0 -1 -1 -2 -3 -3
4 4 4 4 4 4 4 4 4 4 4 4 3 3 2 1 1 0 1 0 0 -0 -0 -0 -0 -0 -0 -1 -1 -2 -2 -3
3 3 4 4 4 4 4 4 4 4 3 3 3 2 1 1 1 1 1 0 0 -0 -0 -0 -0 -1 -1 -1 -1 -1 -2 -2
3 3 3 4 4 4 4 4 4 3 3 3 2 2 1 1 1 1 1 0 -0 -0 -0 -0 -0 -1 -1 -1 -1 -1 -2 -2
3 3 4 4 4 4 4 4 4 4 3 3 2 2 1 1 1 1 1 0 -0 -1 -1 -1 -1 -1 -1 -1 -2 -2 -2 -2